Weather History for Cortez, CO

Change the Weather History Date:

Thursday, March 6, 2014

  Actual Average Record
Temperature  
Mean Temperature 42 °F 37 °F  
Max Temperature 59 °F 52 °F 68 °F (2006)
Min Temperature 24 °F 22 °F 12 °F (2002)
Degree Days  
Heating Degree Days 23 28  
Month to date heating degree days 139 174  
Since 1 July heating degree days 4723 4904  
Cooling Degree Days 0 0  
Month to date cooling degree days 0 0  
Year to date cooling degree days 0 0  
Moisture  
Dew Point 22 °F    
Average Humidity 53    
Maximum Humidity 88    
Minimum Humidity 17    
Precipitation  
Precipitation 0.00 in 0.06 in 0.00 in (2014)
Month to date precipitation 0.17 0.30  
Year to date precipitation 1.01 2.19  
Sea Level Pressure  
Sea Level Pressure 30.04 in    
Wind  
Wind Speed 5 mph (ESE)    
Max Wind Speed 16 mph    
Max Gust Speed 25 mph    
Visibility 10 miles    
Events      
T = Trace of Precipitation, MM = Missing Value Source: NWS Daily Summary

Daily Weather History Graph

Daily Weather History Graph

Search for Another Location

Airport:

Trip Planner

Search our weather history database for the weather conditions in past years. The results will help you decide how hot, cold, wet, or windy it might be!

Date:

Astronomy

Mar. 06, 2014 Rise Set
Actual Time 6:38 AM MST 6:13 PM MST
Civil Twilight 6:12 AM MST 6:39 PM MST
Nautical Twilight 5:42 AM MST 7:09 PM MST
Astronomical Twilight 5:12 AM MST 7:40 PM MST
Moon 9:56 AM MST (3/6) No Moon Set
Length of Visible Light 12h 26m
Length of Day
11h 34m
Waxing Crescent, 33% of the Moon is Illuminated
Mar 6
Waxing Crescent
Mar 8
First Quarter
Mar 16
Full
Mar 23
Last Quarter
Mar 30
New

Hourly Weather History & Observations

Time (MST) Temp. Windchill Dew Point Humidity Pressure Visibility Wind Dir Wind Speed Gust Speed Precip Events Conditions
12:53 AM 33.1 °F 30.0 °F 25.0 °F 72% 30.15 in 10.0 mi ENE 3.5 mph - N/A   Overcast
1:53 AM 28.9 °F 23.9 °F 23.0 °F 78% 30.16 in 10.0 mi ENE 4.6 mph - N/A   Clear
2:53 AM 27.0 °F 21.6 °F 21.9 °F 81% 30.14 in 10.0 mi ENE 4.6 mph - N/A   Clear
3:53 AM 27.0 °F 20.5 °F 21.9 °F 81% 30.13 in 10.0 mi East 5.8 mph - N/A   Clear
4:53 AM 26.1 °F 20.5 °F 21.9 °F 84% 30.14 in 10.0 mi ENE 4.6 mph - N/A   Clear
5:53 AM 24.1 °F 19.7 °F 21.0 °F 88% 30.18 in 10.0 mi NE 3.5 mph - N/A   Clear
6:53 AM 24.1 °F - 21.0 °F 88% 30.21 in 10.0 mi Calm Calm - N/A   Clear
7:53 AM 30.0 °F - 24.1 °F 79% 30.22 in 10.0 mi Calm Calm - N/A   Clear
8:53 AM 37.0 °F - 24.1 °F 59% 30.20 in 10.0 mi Calm Calm - N/A   Clear
9:53 AM 46.9 °F - 21.0 °F 36% 30.15 in 10.0 mi Calm Calm - N/A   Clear
10:53 AM 52.0 °F - 23.0 °F 32% 30.10 in 10.0 mi SW 6.9 mph - N/A   Clear
11:53 AM 55.0 °F - 23.0 °F 29% 30.05 in 10.0 mi SW 8.1 mph - N/A   Clear
12:53 PM 57.0 °F - 23.0 °F 27% 30.01 in 10.0 mi SSW 12.7 mph - N/A   Clear
1:53 PM 57.9 °F - 19.0 °F 22% 29.99 in 10.0 mi SSW 15.0 mph - N/A   Clear
2:53 PM 57.0 °F - 14.0 °F 18% 29.98 in 10.0 mi SW 11.5 mph - N/A   Clear
3:53 PM 57.0 °F - 18.0 °F 22% 29.96 in 10.0 mi North - - N/A   Mostly Cloudy
4:53 PM 55.0 °F - 19.9 °F 25% 29.95 in 10.0 mi SSW 4.6 mph - N/A   Overcast
5:53 PM 52.0 °F - 24.1 °F 34% 29.96 in 10.0 mi North - - N/A   Scattered Clouds
6:53 PM 51.1 °F - 21.0 °F 31% 29.94 in 10.0 mi NNE 5.8 mph - N/A   Overcast
7:53 PM 46.9 °F - 23.0 °F 39% 29.93 in 10.0 mi North - - N/A   Mostly Cloudy
8:53 PM 46.0 °F 43.1 °F 25.0 °F 44% 29.91 in 10.0 mi SE 5.8 mph - N/A   Overcast
9:53 PM 46.0 °F 44.8 °F 25.0 °F 44% 29.88 in 10.0 mi Variable 3.5 mph - N/A   Mostly Cloudy
10:53 PM 43.0 °F 40.3 °F 28.0 °F 56% 29.85 in 10.0 mi East 4.6 mph - N/A   Overcast
11:53 PM 41.0 °F 37.1 °F 28.9 °F 62% 29.83 in 10.0 mi ENE 5.8 mph - N/A   Overcast